ANA1635 RJOO-RJOM

Flight info

Callsign ANA1635
Flight time 0h 38m
Altitude 20000
Route TIGER SUMAR AYAME SETOH ONOPA WASYU Y28 BAMBO Y283 ITUKI
Aircraft B738/M-SDE2E3FGHIRWXY/LB1

Departure

Time 2026-04-14 21:28
Airport Osaka Itami International Airport (RJOO)

Arrival

Time 2026-04-14 22:06
Airport Matsuyama Airport (RJOM)
Time Latitude Longitude Altitude Speed Heading
2026-04-14 20:41 34.79271 135.43708 47 ft 0 kts 161°
2026-04-14 21:18 34.79281 135.43704 46 ft 2 kts 160°
2026-04-14 21:18 34.79296 135.43697 45 ft 2 kts 161°
2026-04-14 21:19 34.79312 135.43691 45 ft 2 kts 165°
2026-04-14 21:19 34.79328 135.43687 46 ft 2 kts 191°
2026-04-14 21:19 34.79338 135.43694 45 ft 1 kts 234°
2026-04-14 21:19 34.79339 135.43695 45 ft 0 kts 234°
2026-04-14 21:22 34.79339 135.43694 47 ft 0 kts 234°
2026-04-14 21:23 34.79334 135.43686 47 ft 3 kts 235°
2026-04-14 21:23 34.79318 135.43656 47 ft 6 kts 238°
2026-04-14 21:23 34.79296 135.43598 46 ft 9 kts 255°
2026-04-14 21:23 34.79273 135.43518 47 ft 11 kts 230°
2026-04-14 21:24 34.79228 135.43449 48 ft 10 kts 254°
2026-04-14 21:24 34.79258 135.43374 48 ft 10 kts 315°
2026-04-14 21:24 34.79307 135.43315 46 ft 10 kts 315°
2026-04-14 21:24 34.79354 135.43257 46 ft 10 kts 315°
2026-04-14 21:25 34.79405 135.43195 44 ft 11 kts 315°
2026-04-14 21:25 34.79466 135.43121 45 ft 10 kts 315°
2026-04-14 21:25 34.79524 135.43051 45 ft 13 kts 315°
2026-04-14 21:25 34.79582 135.42981 46 ft 2 kts 315°
2026-04-14 21:26 34.79597 135.42962 45 ft 4 kts 315°
2026-04-14 21:26 34.79621 135.42929 45 ft 7 kts 304°
2026-04-14 21:26 34.79635 135.42864 47 ft 10 kts 269°
2026-04-14 21:26 34.79591 135.42802 48 ft 11 kts 176°
2026-04-14 21:27 34.79552 135.42837 47 ft 4 kts 135°
2026-04-14 21:27 34.79396 135.43026 47 ft 71 kts 135°
2026-04-14 21:27 34.78867 135.43666 47 ft 141 kts 134°
2026-04-14 21:27 34.78068 135.44625 474 ft 163 kts 131°
2026-04-14 21:28 34.77228 135.45458 1482 ft 162 kts 156°
2026-04-14 21:28 34.76044 135.45373 2003 ft 194 kts 203°
2026-04-14 21:28 34.74962 135.44201 2365 ft 223 kts 225°
2026-04-14 21:28 34.73838 135.42749 2687 ft 248 kts 222°
2026-04-14 21:29 34.72560 135.41235 3261 ft 264 kts 220°
2026-04-14 21:29 34.71227 135.39716 4299 ft 261 kts 220°
2026-04-14 21:29 34.69888 135.38227 5368 ft 261 kts 220°
2026-04-14 21:29 34.68994 135.37243 5991 ft 262 kts 220°
2026-04-14 21:30 34.67644 135.35719 6864 ft 266 kts 227°
2026-04-14 21:30 34.66611 135.33384 7826 ft 275 kts 249°
2026-04-14 21:30 34.66217 135.31905 8453 ft 278 kts 250°
2026-04-14 21:30 34.65795 135.29605 9396 ft 284 kts 267°
2026-04-14 21:31 34.66088 135.27219 10282 ft 289 kts 282°
2026-04-14 21:31 34.66579 135.24760 10746 ft 309 kts 282°
2026-04-14 21:31 34.67102 135.22117 10954 ft 334 kts 282°
2026-04-14 21:31 34.67654 135.19277 11262 ft 353 kts 282°
2026-04-14 21:32 34.68214 135.16367 11876 ft 360 kts 282°
2026-04-14 21:32 34.68786 135.13399 12635 ft 361 kts 283°
2026-04-14 21:32 34.69361 135.10416 13418 ft 363 kts 283°
2026-04-14 21:32 34.69938 135.07418 14164 ft 364 kts 283°
2026-04-14 21:33 34.70430 135.04405 14865 ft 365 kts 276°
2026-04-14 21:33 34.70516 135.01347 15540 ft 366 kts 268°
2026-04-14 21:33 34.70186 134.98236 16238 ft 368 kts 259°
2026-04-14 21:33 34.69625 134.95230 16910 ft 370 kts 257°
2026-04-14 21:34 34.69026 134.92184 17583 ft 371 kts 257°
2026-04-14 21:34 34.68419 134.89111 18204 ft 374 kts 257°
2026-04-14 21:34 34.67816 134.86032 18768 ft 374 kts 257°
2026-04-14 21:34 34.67227 134.82997 19431 ft 372 kts 257°
2026-04-14 21:35 34.66636 134.79927 19797 ft 369 kts 257°
2026-04-14 21:35 34.66056 134.76899 19904 ft 368 kts 257°
2026-04-14 21:35 34.65476 134.73867 19911 ft 367 kts 258°
2026-04-14 21:35 34.64899 134.70852 19921 ft 367 kts 258°
2026-04-14 21:36 34.64319 134.67822 19923 ft 367 kts 257°
2026-04-14 21:36 34.63738 134.64795 19924 ft 367 kts 257°
2026-04-14 21:36 34.63164 134.61807 19920 ft 368 kts 257°
2026-04-14 21:36 34.62581 134.58773 19920 ft 368 kts 257°
2026-04-14 21:37 34.61995 134.55731 19919 ft 368 kts 257°
2026-04-14 21:37 34.61412 134.52708 19917 ft 368 kts 257°
2026-04-14 21:37 34.60829 134.49684 19917 ft 368 kts 257°
2026-04-14 21:37 34.60242 134.46655 19914 ft 368 kts 257°
2026-04-14 21:38 34.59665 134.43669 19913 ft 368 kts 257°
2026-04-14 21:38 34.59081 134.40641 19912 ft 368 kts 257°
2026-04-14 21:38 34.58497 134.37611 19916 ft 368 kts 257°
2026-04-14 21:38 34.57912 134.34578 19916 ft 368 kts 257°
2026-04-14 21:39 34.57324 134.31534 19916 ft 368 kts 257°
2026-04-14 21:39 34.56746 134.28543 19915 ft 368 kts 257°
2026-04-14 21:39 34.56158 134.25507 19916 ft 369 kts 257°
2026-04-14 21:39 34.55569 134.22467 19914 ft 369 kts 257°
2026-04-14 21:40 34.54986 134.19466 19914 ft 369 kts 257°
2026-04-14 21:40 34.54396 134.16435 19911 ft 369 kts 257°
2026-04-14 21:40 34.53876 134.13378 19912 ft 368 kts 262°
2026-04-14 21:41 34.53752 134.12138 19914 ft 368 kts 263°
2026-04-14 21:41 34.53485 134.09085 19915 ft 368 kts 264°
2026-04-14 21:41 34.53232 134.06035 19911 ft 368 kts 264°
2026-04-14 21:41 34.52972 134.02938 19910 ft 368 kts 264°
2026-04-14 21:42 34.52707 133.99848 19908 ft 368 kts 264°
2026-04-14 21:42 34.52437 133.96762 19908 ft 368 kts 264°
2026-04-14 21:42 34.52163 133.93660 19911 ft 368 kts 264°
2026-04-14 21:42 34.51887 133.90573 19912 ft 368 kts 264°
2026-04-14 21:43 34.51613 133.87521 19908 ft 368 kts 264°
2026-04-14 21:43 34.51336 133.84431 19903 ft 369 kts 264°
2026-04-14 21:43 34.51057 133.81338 19905 ft 369 kts 264°
2026-04-14 21:43 34.50777 133.78243 19914 ft 369 kts 264°
2026-04-14 21:44 34.50499 133.75141 19915 ft 369 kts 264°
2026-04-14 21:44 34.50229 133.72091 19898 ft 360 kts 264°
2026-04-14 21:44 34.49966 133.69115 19892 ft 346 kts 264°
2026-04-14 21:44 34.49716 133.66300 19874 ft 334 kts 264°
2026-04-14 21:45 34.49470 133.63539 19846 ft 323 kts 264°
2026-04-14 21:45 34.49231 133.60857 19680 ft 317 kts 264°
2026-04-14 21:45 34.48994 133.58219 19517 ft 314 kts 264°
2026-04-14 21:45 34.48753 133.55530 19193 ft 329 kts 264°
2026-04-14 21:46 34.48499 133.52718 18820 ft 337 kts 264°
2026-04-14 21:46 34.48246 133.49916 18402 ft 337 kts 264°
2026-04-14 21:46 34.47991 133.47094 17956 ft 336 kts 264°
2026-04-14 21:46 34.47736 133.44283 17513 ft 334 kts 264°
2026-04-14 21:47 34.47485 133.41521 17094 ft 332 kts 264°
2026-04-14 21:47 34.47171 133.38728 16674 ft 329 kts 258°
2026-04-14 21:47 34.46535 133.36110 16270 ft 327 kts 250°
2026-04-14 21:47 34.45720 133.33541 15887 ft 325 kts 250°
2026-04-14 21:48 34.44895 133.30992 15491 ft 323 kts 249°
2026-04-14 21:48 34.44079 133.28457 15101 ft 321 kts 250°
2026-04-14 21:48 34.43284 133.25967 14714 ft 320 kts 250°
2026-04-14 21:48 34.42487 133.23452 14333 ft 318 kts 250°
2026-04-14 21:49 34.41697 133.20956 13953 ft 317 kts 250°
2026-04-14 21:49 34.40907 133.18462 13542 ft 316 kts 250°
2026-04-14 21:49 34.40115 133.15962 12942 ft 319 kts 249°
2026-04-14 21:49 34.39319 133.13465 12559 ft 316 kts 249°
2026-04-14 21:50 34.38528 133.10986 12173 ft 315 kts 249°
2026-04-14 21:50 34.37749 133.08547 11774 ft 313 kts 249°
2026-04-14 21:50 34.36965 133.06093 11386 ft 311 kts 249°
2026-04-14 21:50 34.36186 133.03653 11020 ft 310 kts 249°
2026-04-14 21:51 34.35410 133.01228 10652 ft 308 kts 249°
2026-04-14 21:51 34.34652 132.98855 10432 ft 301 kts 249°
2026-04-14 21:51 34.33910 132.96537 10175 ft 288 kts 249°
2026-04-14 21:51 34.33196 132.94308 9879 ft 279 kts 248°
2026-04-14 21:52 34.32503 132.92151 9572 ft 270 kts 248°
2026-04-14 21:52 34.31800 132.90105 9232 ft 262 kts 239°
2026-04-14 21:52 34.30586 132.88504 8945 ft 252 kts 216°
2026-04-14 21:52 34.29051 132.87597 8659 ft 241 kts 198°
2026-04-14 21:53 34.27488 132.87063 8350 ft 233 kts 197°
2026-04-14 21:53 34.25940 132.86558 8110 ft 226 kts 196°
2026-04-14 21:53 34.24440 132.86065 7877 ft 220 kts 196°
2026-04-14 21:53 34.22997 132.85584 7648 ft 216 kts 196°
2026-04-14 21:54 34.21556 132.85101 7426 ft 213 kts 196°
2026-04-14 21:54 34.20130 132.84621 7207 ft 212 kts 196°
2026-04-14 21:54 34.18709 132.84142 6979 ft 211 kts 195°
2026-04-14 21:54 34.17294 132.83665 6770 ft 210 kts 195°
2026-04-14 21:55 34.15883 132.83198 6555 ft 209 kts 195°
2026-04-14 21:55 34.14498 132.82741 6343 ft 208 kts 195°
2026-04-14 21:55 34.13101 132.82280 6105 ft 207 kts 195°
2026-04-14 21:55 34.11716 132.81823 5882 ft 206 kts 194°
2026-04-14 21:56 34.10332 132.81367 5656 ft 205 kts 194°
2026-04-14 21:56 34.08955 132.80913 5440 ft 205 kts 194°
2026-04-14 21:56 34.07599 132.80378 5193 ft 206 kts 208°
2026-04-14 21:56 34.06579 132.79179 5023 ft 204 kts 232°
2026-04-14 21:57 34.05868 132.77729 4902 ft 203 kts 237°
2026-04-14 21:57 34.05191 132.76224 4788 ft 206 kts 237°
2026-04-14 21:57 34.04500 132.74690 4671 ft 210 kts 237°
2026-04-14 21:57 34.03797 132.73140 4554 ft 211 kts 237°
2026-04-14 21:58 34.03089 132.71591 4418 ft 210 kts 237°
2026-04-14 21:58 34.02381 132.70048 4289 ft 210 kts 237°
2026-04-14 21:58 34.01675 132.68513 4157 ft 209 kts 237°
2026-04-14 21:58 34.00979 132.66969 4029 ft 210 kts 242°
2026-04-14 21:59 34.00723 132.65246 3889 ft 216 kts 270°
2026-04-14 21:59 34.00979 132.63442 3779 ft 218 kts 280°
2026-04-14 21:59 34.01529 132.61736 3624 ft 222 kts 305°
2026-04-14 21:59 34.02748 132.60638 3579 ft 220 kts 342°
2026-04-14 22:00 34.04252 132.60562 3568 ft 221 kts 18°
2026-04-14 22:00 34.05536 132.61536 3575 ft 220 kts 54°
2026-04-14 22:00 34.06116 132.63180 3537 ft 211 kts 90°
2026-04-14 22:00 34.05843 132.64828 3520 ft 202 kts 122°
2026-04-14 22:01 34.04911 132.66061 3516 ft 201 kts 148°
2026-04-14 22:01 34.03610 132.66656 3516 ft 200 kts 167°
2026-04-14 22:01 34.02236 132.66963 3514 ft 201 kts 170°
2026-04-14 22:01 34.00850 132.66993 3489 ft 201 kts 193°
2026-04-14 22:02 33.99524 132.66411 3505 ft 204 kts 200°
2026-04-14 22:02 33.98217 132.65727 3402 ft 204 kts 201°
2026-04-14 22:02 33.96906 132.65038 2855 ft 215 kts 201°
2026-04-14 22:02 33.95569 132.64345 2789 ft 203 kts 201°
2026-04-14 22:03 33.94309 132.63692 2485 ft 201 kts 201°
2026-04-14 22:03 33.92990 132.63013 2099 ft 202 kts 202°
2026-04-14 22:03 33.91676 132.62415 1837 ft 197 kts 197°
2026-04-14 22:03 33.90334 132.62114 1704 ft 200 kts 178°
2026-04-14 22:04 33.89007 132.62379 1600 ft 187 kts 160°
2026-04-14 22:04 33.87889 132.63054 1348 ft 177 kts 144°
2026-04-14 22:04 33.86991 132.63985 1124 ft 164 kts 134°
2026-04-14 22:04 33.86276 132.64953 956 ft 147 kts 129°
2026-04-14 22:05 33.85616 132.65896 782 ft 149 kts 129°
2026-04-14 22:05 33.84945 132.66840 577 ft 148 kts 129°
2026-04-14 22:05 33.84266 132.67793 321 ft 150 kts 129°
2026-04-14 22:05 33.83602 132.68731 112 ft 145 kts 128°
2026-04-14 22:06 33.82985 132.69600 24 ft 128 kts 127°
2026-04-14 22:06 33.82545 132.70214 23 ft 66 kts 130°
2026-04-14 22:06 33.82378 132.70449 26 ft 19 kts 131°
2026-04-14 22:06 33.82311 132.70556 24 ft 15 kts 106°
2026-04-14 22:07 33.82358 132.70652 27 ft 12 kts 40°
2026-04-14 22:07 33.82431 132.70672 27 ft 11 kts 335°
2026-04-14 22:07 33.82485 132.70604 27 ft 11 kts 310°
2026-04-14 22:07 33.82535 132.70534 25 ft 11 kts 310°
2026-04-14 22:08 33.82584 132.70467 28 ft 11 kts 310°
2026-04-14 22:08 33.82630 132.70402 26 ft 10 kts 310°
2026-04-14 22:08 33.82675 132.70338 26 ft 10 kts 310°
2026-04-14 22:08 33.82721 132.70277 25 ft 9 kts 320°
2026-04-14 22:09 33.82772 132.70301 27 ft 8 kts 40°
2026-04-14 22:09 33.82815 132.70346 24 ft 8 kts 41°
2026-04-14 22:09 33.82837 132.70368 26 ft 0 kts 40°